R/V Knorr Calliope CSV data file  (Time stamps are GMT)
Date, Time_GMT, Depth12, Depth35, Air_Temp, WXT5_Ta, WXT5_Pa, dec_lat, dec_lon, EDO_knt, GPS_COG, GPS_SOG, Gyro, IMET_BPR, IMET_SWR, WXT5_Ri, WXT5_Rc, HRH, WXT5_Ua, WXT5_Dm, WXT5_Sm, SBE45C, SBE45S, SBE45T, Salinity, SSCND, Fluorometer, SSTMP, SSV, Wnd_Dir, TWD_5, Wnd_Spd, TWS_5, HdChkSum=52
2008/03/31, 00:00:13, 2889.00, 0.00, 5.82, 6.10, 998.4, 59.2318070, -21.3393170, , 48.60, 11.27, 44.40, 999.22, 0.00, 0.0, 0.01, 70.18, 73.1, 268, 2.9, 38.78310, 35.31630, 10.4025, 35.3163, 38.7831, 97.60, 9.4398, 1488.19, 245.80, 252.8, 4.86, 6.2, 52
2008/03/31, 00:01:13, 2887.00, 0.00, 5.77, 6.10, 998.3, 59.2341780, -21.3349430, , 42.10, 11.85, 44.60, 999.38, -0.20, 0.0, 0.01, 70.38, 73.0, 268, 3.5, 38.81050, 35.31920, 10.4282, 35.3192, 38.8105, 97.30, 9.4410, 1488.19, 239.50, 254.6, 4.62, 6.1, 52
2008/03/31, 00:02:13, 2888.00, 0.00, 5.68, 6.00, 998.3, 59.2364820, -21.3304570, , 43.10, 12.05, 45.70, 998.53, -0.20, 0.0, 0.01, 69.74, 72.5, 269, 3.7, 38.83550, 35.32020, 10.4533, 35.3202, 38.8355, 98.20, 9.4478, 1488.22, 244.10, 260.6, 5.22, 6.9, 52
2008/03/31, 00:03:14, 2888.00, 0.00, 5.77, 6.00, 998.2, 59.2388250, -21.3259000, , 47.40, 11.90, 44.20, 999.56, -0.30, 0.0, 0.01, 70.05, 72.4, 273, 3.3, 38.84960, 35.32220, 10.4660, 35.3222, 38.8496, 98.80, 9.4563, 1488.25, 234.70, 248.4, 6.20, 7.4, 52
2008/03/31, 00:04:14, 2887.00, 0.00, 5.57, 6.00, 998.4, 59.2411150, -21.3213800, , 47.80, 11.26, 45.70, 998.64, -0.30, 0.0, 0.01, 69.33, 72.2, 295, 4.0, 38.85210, 35.32080, 10.4700, 35.3208, 38.8521, 99.50, 9.4622, 1488.27, 240.20, 265.3, 5.91, 6.4, 52
2008/03/31, 00:05:14, 2886.00, 0.00, 5.71, 5.90, 998.6, 59.2433370, -21.3169650, , 54.30, 13.08, 45.70, 998.85, -0.20, 0.0, 0.01, 69.64, 72.4, 276, 3.3, 38.85730, 35.32040, 10.4759, 35.3204, 38.8573, 98.20, 9.4649, 1488.28, 224.60, 246.1, 5.70, 6.3, 52
2008/03/31, 00:06:14, 2885.00, 0.00, 5.65, 5.90, 998.3, 59.2456820, -21.3123400, , 51.10, 12.09, 45.50, 998.62, -0.20, 0.0, 0.01, 69.31, 72.1, 277, 2.5, 38.84970, 35.31820, 10.4702, 35.3182, 38.8497, 96.10, 9.4640, 1488.28, 224.50, 239.2, 6.07, 6.5, 52
2008/03/31, 00:07:14, 2887.00, 0.00, 5.57, 5.90, 998.6, 59.2479250, -21.3078400, , 40.20, 11.31, 44.70, 999.14, -0.30, 0.0, 0.01, 69.02, 72.1, 271, 2.9, 38.82370, 35.30860, 10.4529, 35.3086, 38.8237, 92.40, 9.4631, 1488.26, 232.00, 251.0, 6.13, 7.3, 52
2008/03/31, 00:08:14, 2887.00, 0.00, 5.68, 5.90, 998.6, 59.2503570, -21.3031570, , 41.60, 11.63, 45.50, 998.95, -0.40, 0.0, 0.01, 69.97, 72.6, 269, 3.2, 38.83580, 35.31200, 10.4620, 35.3120, 38.8358, 91.80, 9.4631, 1488.26, 236.20, 251.1, 5.82, 7.5, 52
2008/03/31, 00:09:14, 2886.00, 0.00, 5.68, 5.90, 998.3, 59.2527130, -21.2985330, , 49.40, 12.27, 45.50, 998.83, -0.40, 0.0, 0.01, 68.69, 71.9, 266, 2.9, 38.84690, 35.31520, 10.4703, 35.3152, 38.8469, 92.10, 9.4595, 1488.26, 232.20, 242.5, 6.75, 7.6, 52
2008/03/31, 00:10:14, 2885.00, 0.00, 5.74, 5.90, 998.3, 59.2551030, -21.2938050, , 51.00, 8.66, 47.00, 998.93, -0.20, 0.0, 0.01, 69.15, 72.3, 264, 2.8, 38.85670, 35.31630, 10.4795, 35.3163, 38.8567, 92.80, 9.4463, 1488.21, 238.90, 249.7, 5.25, 6.8, 52
2008/03/31, 00:11:14, 2886.00, 0.00, 5.65, 6.00, 998.3, 59.2573670, -21.2893180, , 41.10, 11.26, 43.50, 999.05, 0.00, 0.0, 0.01, 68.82, 72.2, 240, 2.9, 38.86230, 35.31450, 10.4872, 35.3145, 38.8623, 92.80, 9.4282, 1488.14, 237.70, 242.8, 5.85, 7.9, 52
2008/03/31, 00:12:13, 2885.00, 0.00, 5.88, 6.00, 998.5, 59.2597180, -21.2849230, , 43.60, 12.51, 44.50, 998.37, 0.20, 0.0, 0.01, 69.44, 72.3, 226, 2.5, 38.87510, 35.31210, 10.5029, 35.3121, 38.8751, 91.20, 9.4095, 1488.07, 234.40, 236.1, 6.81, 8.1, 52
2008/03/31, 00:13:14, 2885.00, 0.00, 5.74, 6.00, 998.7, 59.2619880, -21.2804900, , 38.50, 10.20, 44.90, 998.97, -0.10, 0.0, 0.01, 68.72, 72.5, 226, 3.5, 38.83920, 35.31060, 10.4671, 35.3106, 38.8392, 90.00, 9.3924, 1488.01, 230.30, 239.5, 6.05, 8.0, 52
2008/03/31, 00:14:14, 2884.00, 0.00, 5.74, 6.10, 998.3, 59.2642400, -21.2761680, , 48.00, 12.17, 45.10, 998.87, 0.20, 0.0, 0.01, 69.38, 71.1, 246, 2.9, 38.84120, 35.31200, 10.4678, 35.3120, 38.8412, 89.70, 9.3790, 1487.96, 230.70, 244.8, 8.13, 8.5, 52
2008/03/31, 00:15:14, 2885.00, 0.00, 5.74, 6.00, 998.3, 59.2665280, -21.2717520, , 41.80, 11.91, 44.40, 998.72, -0.10, 0.0, 0.01, 67.53, 70.9, 243, 2.3, 38.84470, 35.31340, 10.4698, 35.3134, 38.8447, 90.90, 9.3674, 1487.92, 230.10, 239.8, 6.84, 7.9, 52
2008/03/31, 00:16:14, 2885.00, 0.00, 5.77, 6.00, 998.5, 59.2688500, -21.2670380, , 49.10, 11.81, 46.10, 999.19, -0.30, 0.0, 0.01, 66.68, 70.7, 225, 3.4, 38.82010, 35.31040, 10.4473, 35.3104, 38.8201, 93.00, 9.3588, 1487.89, 237.50, 244.6, 6.24, 8.4, 52
2008/03/31, 00:17:14, 2884.00, 0.00, 5.74, 6.00, 998.6, 59.2710830, -21.2626420, , 46.20, 12.12, 44.90, 999.09, 0.00, 0.0, 0.01, 66.91, 71.1, 225, 3.4, 38.78350, 35.30630, 10.4133, 35.3063, 38.7835, 92.80, 9.3518, 1487.85, 226.90, 239.4, 7.58, 9.6, 52
2008/03/31, 00:18:14, 2884.00, 0.00, 5.85, 6.10, 998.3, 59.2732470, -21.2582980, , 42.70, 12.32, 46.50, 998.47, 0.20, 0.0, 0.01, 67.66, 70.4, 218, 3.3, 38.76060, 35.30400, 10.3917, 35.3040, 38.7606, 87.60, 9.3456, 1487.83, 231.90, 241.9, 6.76, 8.8, 52
2008/03/31, 00:19:14, 2885.00, 0.00, 5.77, 6.10, 998.0, 59.2755180, -21.2537700, , 45.90, 12.44, 45.20, 998.77, 0.00, 0.0, 0.01, 66.96, 70.7, 241, 2.2, 38.74930, 35.30500, 10.3789, 35.3050, 38.7493, 83.00, 9.3397, 1487.81, 226.70, 238.5, 7.31, 7.8, 52
2008/03/31, 00:20:14, 2884.00, 0.00, 5.91, 6.10, 998.1, 59.2778170, -21.2491420, , 47.40, 13.20, 45.70, 999.59, 0.20, 0.0, 0.01, 67.79, 70.8, 219, 2.1, 38.72430, 35.30470, 10.3530, 35.3047, 38.7243, 79.60, 9.3355, 1487.79, 225.30, 234.0, 6.74, 8.1, 52
2008/03/31, 00:21:14, 2884.00, 0.00, 5.91, 6.10, 998.4, 59.2799200, -21.2447020, , 46.30, 9.93, 44.10, 998.86, -0.20, 0.0, 0.01, 68.33, 71.2, 222, 2.9, 38.71520, 35.30610, 10.3421, 35.3061, 38.7152, 79.30, 9.3334, 1487.79, 231.40, 241.8, 6.29, 8.4, 52
2008/03/31, 00:22:14, 2881.00, 0.00, 5.88, 6.20, 998.2, 59.2821530, -21.2403530, , 47.40, 11.28, 45.60, 998.90, 0.10, 0.0, 0.01, 68.36, 71.3, 231, 1.7, 38.72570, 35.30830, 10.3509, 35.3083, 38.7257, 78.70, 9.3329, 1487.79, 225.40, 234.7, 6.42, 7.1, 52
2008/03/31, 00:23:13, 2881.00, 0.00, 5.99, 6.20, 998.5, 59.2843550, -21.2358820, , 50.00, 10.05, 45.50, 999.41, 0.00, 0.0, 0.01, 68.69, 72.5, 237, 2.4, 38.70360, 35.30570, 10.3304, 35.3057, 38.7036, 78.10, 9.3327, 1487.79, 221.60, 239.1, 5.60, 7.0, 52
2008/03/31, 00:24:14, 2882.00, 0.00, 6.02, 6.30, 998.3, 59.2865550, -21.2314550, , 43.80, 10.82, 44.30, 998.73, 0.10, 0.0, 0.01, 69.44, 72.3, 226, 3.3, 38.70920, 35.30600, 10.3360, 35.3060, 38.7092, 77.50, 9.3310, 1487.78, 228.50, 244.4, 5.49, 8.1, 52
2008/03/31, 00:25:13, 2883.00, 0.00, 5.93, 6.30, 998.1, 59.2888400, -21.2269530, , 42.80, 11.35, 44.10, 999.16, -0.10, 0.0, 0.01, 68.66, 71.4, 223, 2.3, 38.70380, 35.30500, 10.3313, 35.3050, 38.7038, 78.10, 9.3291, 1487.77, 225.40, 233.9, 7.57, 9.0, 52
2008/03/31, 00:26:13, 2882.00, 0.00, 5.91, 6.20, 998.5, 59.2911470, -21.2222570, , 42.10, 11.81, 44.30, 999.03, -0.20, 0.0, 0.01, 67.50, 70.1, 229, 2.2, 38.69460, 35.30690, 10.3197, 35.3069, 38.6946, 78.10, 9.3270, 1487.76, 231.00, 238.7, 6.77, 7.8, 52
2008/03/31, 00:27:14, 2882.00, 0.00, 5.88, 6.20, 998.3, 59.2933980, -21.2177000, , 44.60, 12.06, 46.20, 998.76, -0.20, 0.0, 0.01, 66.96, 70.1, 236, 2.3, 38.68910, 35.30640, 10.3146, 35.3064, 38.6891, 78.40, 9.3244, 1487.76, 224.20, 237.8, 6.25, 7.5, 52
2008/03/31, 00:28:14, 2882.00, 0.00, 5.79, 6.20, 998.3, 59.2957520, -21.2128830, , 46.20, 12.34, 45.60, 998.96, -0.10, 0.0, 0.01, 67.45, 70.8, 276, 2.3, 38.70160, 35.30580, 10.3282, 35.3058, 38.7016, 79.30, 9.3217, 1487.74, 228.10, 246.7, 6.40, 6.8, 52
2008/03/31, 00:29:14, 2880.00, 0.00, 5.91, 6.20, 998.3, 59.2979570, -21.2084220, , 44.10, 10.25, 43.80, 998.91, -0.20, 0.0, 0.01, 68.10, 70.6, 240, 2.5, 38.69960, 35.30560, 10.3264, 35.3056, 38.6996, 79.00, 9.3188, 1487.73, 222.80, 242.2, 5.40, 7.3, 52
2008/03/31, 00:30:15, 2880.00, 0.00, 5.88, 6.20, 998.2, 59.3002280, -21.2040120, , 43.50, 12.05, 44.20, 998.77, -0.20, 0.0, 0.01, 68.36, 71.0, 230, 2.5, 38.69570, 35.30510, 10.3228, 35.3051, 38.6957, 78.70, 9.3169, 1487.73, 226.40, 238.7, 7.02, 8.5, 52
2008/03/31, 00:31:14, 2880.00, 0.00, 5.96, 6.20, 998.3, 59.3025430, -21.1994800, , 48.20, 11.61, 45.10, 998.78, 0.00, 0.0, 0.01, 68.84, 71.4, 229, 2.7, 38.69920, 35.30530, 10.3263, 35.3053, 38.6992, 79.30, 9.3156, 1487.72, 218.40, 234.3, 7.00, 8.5, 52
2008/03/31, 00:32:14, 2879.00, 0.00, 5.91, 6.20, 998.2, 59.3048420, -21.1947620, , 51.70, 12.17, 45.30, 998.91, 0.10, 0.0, 0.01, 68.30, 71.1, 220, 2.7, 38.68420, 35.30320, 10.3127, 35.3032, 38.6842, 79.90, 9.3153, 1487.72, 218.20, 233.7, 6.30, 7.8, 52
2008/03/31, 00:33:14, 2880.00, 0.00, 5.85, 6.20, 997.9, 59.3071550, -21.1901250, , 43.40, 13.33, 46.20, 999.12, 0.00, 0.0, 0.01, 67.76, 70.4, 262, 2.1, 38.68460, 35.30440, 10.3119, 35.3044, 38.6846, 79.30, 9.3162, 1487.72, 228.20, 244.4, 7.39, 7.6, 52
2008/03/31, 00:34:14, 2879.00, 0.00, 5.91, 6.20, 998.3, 59.3094420, -21.1856230, , 42.60, 11.39, 45.60, 998.76, -0.10, 0.0, 0.01, 68.66, 71.6, 243, 1.8, 38.68090, 35.30500, 10.3074, 35.3050, 38.6809, 79.00, 9.3168, 1487.72, 224.30, 239.4, 6.14, 7.3, 52
2008/03/31, 00:35:13, 2879.00, 0.00, 5.93, 6.30, 997.8, 59.3116270, -21.1810820, , 40.20, 11.68, 44.80, 999.20, 0.20, 0.0, 0.01, 69.41, 71.2, 215, 2.6, 38.67750, 35.30410, 10.3048, 35.3041, 38.6775, 78.40, 9.3174, 1487.73, 221.90, 237.4, 5.63, 8.0, 52
2008/03/31, 00:36:14, 2878.00, 0.00, 5.82, 6.20, 998.2, 59.3138680, -21.1766520, , 49.80, 14.06, 45.40, 998.55, 0.10, 0.0, 0.01, 67.92, 70.1, 261, 2.2, 38.68160, 35.30340, 10.3098, 35.3034, 38.6816, 78.10, 9.3174, 1487.73, 215.90, 243.4, 6.50, 6.4, 52
2008/03/31, 00:37:14, 2878.00, 0.00, 5.91, 6.20, 998.5, 59.3160800, -21.1719930, , 53.40, 10.83, 47.10, 998.64, 0.40, 0.0, 0.01, 67.66, 70.7, 218, 2.1, 38.67570, 35.30480, 10.3022, 35.3048, 38.6757, 79.00, 9.3175, 1487.73, 220.20, 233.6, 5.87, 7.5, 52
2008/03/31, 00:38:14, 2878.00, 0.00, 5.85, 6.20, 998.4, 59.3182180, -21.1675820, , 46.00, 12.02, 45.10, 998.73, 0.20, 0.0, 0.01, 67.35, 69.5, 230, 2.1, 38.68880, 35.30330, 10.3174, 35.3033, 38.6888, 78.40, 9.3172, 1487.73, 209.40, 232.0, 5.36, 6.5, 52
2008/03/31, 00:39:14, 2877.00, 0.00, 5.88, 6.20, 998.4, 59.3204200, -21.1630980, , 46.00, 12.41, 44.80, 998.47, 0.10, 0.0, 0.01, 67.87, 70.9, 223, 2.6, 38.70220, 35.30600, 10.3286, 35.3060, 38.7022, 79.00, 9.3162, 1487.72, 221.40, 238.1, 6.47, 8.3, 52
2008/03/31, 00:40:14, 2876.00, 0.00, 5.91, 6.20, 998.7, 59.3225720, -21.1585480, , 43.70, 11.09, 45.70, 998.55, 0.40, 0.0, 0.01, 67.61, 70.2, 221, 3.1, 38.68070, 35.30330, 10.3090, 35.3033, 38.6807, 79.30, 9.3151, 1487.72, 226.90, 246.2, 5.88, 8.6, 52
2008/03/31, 00:41:14, 2877.00, 0.00, 5.85, 6.20, 998.3, 59.3247370, -21.1540000, , 49.00, 10.71, 44.20, 998.65, 0.40, 0.0, 0.01, 66.34, 68.5, 235, 2.9, 38.68550, 35.30530, 10.3120, 35.3053, 38.6855, 79.00, 9.3135, 1487.71, 216.60, 240.0, 7.19, 8.5, 52
2008/03/31, 00:42:14, 2877.00, 0.00, 5.91, 6.20, 998.3, 59.3268700, -21.1495980, , 51.00, 11.83, 45.80, 999.00, 0.30, 0.0, 0.01, 66.37, 69.1, 227, 2.1, 38.68290, 35.30460, 10.3100, 35.3046, 38.6829, 79.30, 9.3123, 1487.71, 217.70, 233.9, 6.65, 7.7, 52
2008/03/31, 00:43:14, 2876.00, 0.00, 5.91, 6.20, 998.1, 59.3290680, -21.1450130, , 48.00, 10.70, 44.00, 999.22, 0.50, 0.0, 0.01, 67.48, 70.4, 201, 3.3, 38.68710, 35.30500, 10.3139, 35.3050, 38.6871, 79.60, 9.3114, 1487.71, 223.80, 230.4, 6.64, 9.7, 52
2008/03/31, 00:44:14, 2876.00, 0.00, 5.93, 6.30, 997.9, 59.3312880, -21.1403580, , 46.70, 12.65, 44.10, 998.74, 0.30, 0.0, 0.01, 67.87, 70.1, 196, 4.0, 38.68550, 35.30410, 10.3131, 35.3041, 38.6855, 79.90, 9.3111, 1487.70, 226.10, 234.7, 6.55, 10.2, 52
2008/03/31, 00:45:13, 2874.00, 0.00, 5.85, 6.30, 997.8, 59.3334880, -21.1357980, , 40.90, 11.93, 43.50, 998.63, 0.40, 0.0, 0.01, 67.30, 69.0, 219, 3.4, 38.68980, 35.30510, 10.3166, 35.3051, 38.6898, 80.20, 9.3114, 1487.71, 224.30, 241.3, 6.33, 8.4, 52
2008/03/31, 00:46:13, 2875.00, 0.00, 5.96, 6.30, 998.4, 59.3356620, -21.1313200, , 48.10, 12.05, 44.60, 998.74, 0.40, 0.0, 0.01, 66.00, 68.0, 212, 3.7, 38.68290, 35.30410, 10.3104, 35.3041, 38.6829, 80.20, 9.3110, 1487.70, 223.90, 234.9, 6.99, 9.4, 52
2008/03/31, 00:47:14, 2874.00, 0.00, 5.77, 6.20, 998.1, 59.3378330, -21.1267300, , 51.90, 10.92, 46.50, 999.07, 0.40, 0.0, 0.01, 64.37, 66.7, 236, 3.4, 38.68160, 35.30460, 10.3085, 35.3046, 38.6816, 80.20, 9.3099, 1487.70, 225.40, 248.1, 6.81, 8.3, 52
2008/03/31, 00:48:14, 2875.00, 0.00, 5.96, 6.20, 997.9, 59.3400430, -21.1221530, , 50.10, 12.55, 46.50, 999.05, 0.50, 0.0, 0.01, 64.39, 65.8, 242, 3.2, 38.67530, 35.30310, 10.3035, 35.3031, 38.6753, 80.20, 9.3073, 1487.69, 220.80, 241.9, 6.98, 8.3, 52
2008/03/31, 00:49:14, 2874.00, 0.00, 5.93, 6.20, 998.1, 59.3422280, -21.1174070, , 40.40, 12.18, 44.10, 998.65, 0.50, 0.0, 0.01, 63.77, 65.6, 221, 1.9, 38.67830, 35.30420, 10.3056, 35.3042, 38.6783, 80.50, 9.3048, 1487.68, 225.70, 235.4, 6.61, 7.6, 52
2008/03/31, 00:50:14, 2874.00, 0.00, 5.96, 6.20, 998.2, 59.3445070, -21.1126700, , 40.80, 11.00, 46.40, 998.72, 0.20, 0.0, 0.01, 64.03, 65.8, 256, 2.2, 38.67470, 35.30360, 10.3023, 35.3036, 38.6747, 79.90, 9.3035, 1487.68, 230.40, 249.0, 5.99, 6.8, 52
2008/03/31, 00:51:14, 2873.00, 0.00, 5.93, 6.20, 998.3, 59.3466770, -21.1080250, , 41.60, 11.65, 43.80, 998.85, -0.10, 0.0, 0.01, 64.94, 67.2, 238, 1.8, 38.67170, 35.30420, 10.2986, 35.3042, 38.6717, 80.50, 9.3023, 1487.67, 230.70, 240.4, 6.27, 7.6, 52
2008/03/31, 00:52:14, 2873.00, 0.00, 5.96, 6.30, 998.1, 59.3489750, -21.1032950, , 46.00, 11.87, 44.70, 998.93, 0.00, 0.0, 0.01, 65.75, 67.6, 221, 2.5, 38.67770, 35.30470, 10.3044, 35.3047, 38.6777, 79.60, 9.3007, 1487.67, 225.70, 235.9, 6.42, 8.4, 52
2008/03/31, 00:53:14, 2873.00, 0.00, 5.93, 6.30, 998.2, 59.3511480, -21.0987570, , 42.70, 10.96, 45.80, 999.14, 0.10, 0.0, 0.01, 64.81, 67.1, 239, 2.5, 38.67300, 35.30320, 10.3009, 35.3032, 38.6730, 79.60, 9.2997, 1487.66, 229.20, 241.3, 7.50, 8.3, 52
2008/03/31, 00:54:14, 2872.00, 0.00, 5.99, 6.30, 997.7, 59.3534050, -21.0939770, , 48.20, 12.29, 44.50, 998.44, 0.40, 0.0, 0.01, 64.89, 67.2, 238, 2.2, 38.66990, 35.30420, 10.2968, 35.3042, 38.6699, 80.20, 9.2965, 1487.65, 233.80, 245.6, 6.44, 7.0, 52
2008/03/31, 00:55:14, 2872.00, 0.00, 5.99, 6.30, 998.0, 59.3555920, -21.0893030, , 41.60, 11.67, 44.70, 998.42, 0.40, 0.0, 0.01, 65.64, 67.6, 227, 3.0, 38.65930, 35.30160, 10.2884, 35.3016, 38.6593, 80.20, 9.2927, 1487.64, 229.90, 242.0, 7.39, 9.4, 52
2008/03/31, 00:56:14, 2871.00, 0.00, 6.02, 6.30, 997.9, 59.3577350, -21.0847720, , 54.70, 12.84, 44.40, 998.71, 0.40, 0.0, 0.01, 64.42, 66.7, 236, 3.3, 38.65870, 35.30270, 10.2866, 35.3027, 38.6587, 80.80, 9.2885, 1487.62, 223.60, 241.7, 8.02, 9.5, 52
2008/03/31, 00:57:13, 2871.00, 0.00, 5.99, 6.30, 998.2, 59.3599130, -21.0802330, , 43.30, 10.97, 44.50, 998.81, 0.50, 0.0, 0.01, 64.19, 66.4, 232, 2.9, 38.66530, 35.30330, 10.2928, 35.3033, 38.6653, 80.80, 9.2849, 1487.61, 231.80, 247.0, 6.80, 8.4, 52
2008/03/31, 00:58:14, 2869.00, 0.00, 6.02, 6.40, 997.8, 59.3620500, -21.0758030, , 46.60, 11.00, 42.80, 998.84, 0.40, 0.0, 0.01, 64.84, 66.9, 237, 2.6, 38.66710, 35.30390, 10.2941, 35.3039, 38.6671, 81.50, 9.2837, 1487.60, 225.30, 242.0, 5.99, 7.6, 52
2008/03/31, 00:59:14, 2870.00, 0.00, 6.10, 6.40, 997.7, 59.3641300, -21.0713050, , 50.30, 9.81, 45.90, 998.91, 0.50, 0.0, 0.01, 65.41, 67.5, 241, 2.5, 38.66010, 35.30390, 10.2868, 35.3039, 38.6601, 80.20, 9.2834, 1487.60, 233.70, 249.5, 5.78, 7.0, 52
2008/03/31, 01:00:14, 2870.00, 0.00, 6.13, 6.40, 998.1, 59.3663320, -21.0667220, , 40.70, 12.23, 46.20, 998.46, 0.30, 0.0, 0.01, 66.44, 68.3, 230, 3.2, 38.66090, 35.30140, 10.2902, 35.3014, 38.6609, 79.90, 9.2821, 1487.60, 231.80, 245.8, 6.17, 8.7, 52
2008/03/31, 01:01:14, 2869.00, 0.00, 6.13, 6.50, 997.7, 59.3685200, -21.0620420, , 48.50, 12.95, 44.80, 998.55, 0.30, 0.0, 0.01, 65.93, 68.7, 261, 2.1, 38.65370, 35.30000, 10.2841, 35.3000, 38.6537, 78.70, 9.2808, 1487.59, 224.70, 244.7, 5.69, 6.4, 52
2008/03/31, 01:02:14, 2869.00, 0.00, 6.02, 6.40, 998.3, 59.3707650, -21.0572280, , 52.60, 11.05, 44.00, 998.86, 0.10, 0.0, 0.01, 65.95, 68.1, 276, 2.5, 38.65110, 35.29960, 10.2818, 35.2996, 38.6511, 79.00, 9.2809, 1487.59, 228.80, 250.1, 6.06, 6.4, 52
2008/03/31, 01:03:14, 2868.00, 0.00, 5.96, 6.40, 997.7, 59.3730680, -21.0525000, , 47.00, 12.97, 45.90, 998.77, -0.10, 0.0, 0.01, 65.54, 67.8, 239, 2.2, 38.63930, 35.29950, 10.2695, 35.2995, 38.6393, 78.10, 9.2813, 1487.59, 237.10, 246.7, 5.88, 7.6, 52
2008/03/31, 01:04:14, 2869.00, 0.00, 5.99, 6.30, 998.2, 59.3753650, -21.0477680, , 48.50, 13.10, 44.20, 999.06, -0.30, 0.0, 0.01, 64.52, 67.0, 234, 2.5, 38.63470, 35.29780, 10.2664, 35.2978, 38.6347, 77.50, 9.2843, 1487.60, 230.50, 238.7, 7.32, 8.5, 52
2008/03/31, 01:05:14, 2868.00, 0.00, 6.07, 6.30, 998.2, 59.3775480, -21.0431920, , 47.20, 12.75, 46.30, 998.32, -0.40, 0.0, 0.01, 65.30, 67.5, 233, 2.3, 38.64230, 35.29880, 10.2734, 35.2988, 38.6423, 77.80, 9.2883, 1487.61, 230.60, 241.3, 5.67, 7.0, 52
2008/03/31, 01:06:13, 2867.00, 0.00, 5.91, 6.30, 997.9, 59.3797470, -21.0385170, , 50.40, 9.31, 44.70, 998.97, -0.10, 0.0, 0.01, 65.98, 68.4, 258, 2.2, 38.65550, 35.29970, 10.2863, 35.2997, 38.6555, 78.10, 9.2922, 1487.63, 224.90, 243.1, 5.80, 6.4, 52
2008/03/31, 01:07:13, 2866.00, 0.00, 5.99, 6.30, 998.3, 59.3819580, -21.0339380, , 49.70, 10.76, 46.00, 998.86, 0.20, 0.0, 0.01, 66.86, 69.1, 275, 2.8, 38.64190, 35.30040, 10.2713, 35.3004, 38.6419, 79.30, 9.2957, 1487.64, 229.40, 252.1, 6.56, 7.1, 52
2008/03/31, 01:08:14, 2866.00, 0.00, 5.96, 6.40, 997.8, 59.3839870, -21.0294630, , 45.70, 12.19, 45.60, 998.53, 0.00, 0.0, 0.01, 67.35, 69.5, 252, 3.0, 38.65250, 35.30000, 10.2828, 35.3000, 38.6525, 79.90, 9.2997, 1487.66, 232.90, 253.2, 4.45, 6.6, 52
2008/03/31, 01:09:14, 2866.00, 0.00, 6.04, 6.40, 998.0, 59.3860800, -21.0249630, , 54.00, 12.59, 45.60, 998.61, 0.50, 0.0, 0.01, 68.17, 70.2, 253, 2.0, 38.64810, 35.30190, 10.2763, 35.3019, 38.6481, 80.20, 9.3036, 1487.67, 229.00, 243.0, 6.44, 7.5, 52
2008/03/31, 01:10:13, 2865.00, 0.00, 5.96, 6.40, 997.8, 59.3882400, -21.0202850, , 51.30, 11.35, 45.10, 998.34, 0.40, 0.0, 0.01, 67.66, 70.0, 271, 2.0, 38.64890, 35.30180, 10.2773, 35.3018, 38.6489, 79.90, 9.3066, 1487.68, 224.70, 241.4, 6.12, 6.4, 52
2008/03/31, 01:11:13, 2866.00, 0.00, 6.07, 6.50, 998.3, 59.3904130, -21.0157980, , 50.90, 11.47, 46.70, 998.53, 0.40, 0.0, 0.01, 68.30, 69.8, 224, 3.2, 38.65230, 35.30300, 10.2796, 35.3030, 38.6523, 79.30, 9.3183, 1487.73, 219.00, 237.5, 5.80, 8.7, 52
2008/03/31, 01:12:14, 2865.00, 0.00, 6.02, 6.40, 998.0, 59.3925670, -21.0112770, , 44.30, 10.16, 45.00, 998.66, 0.40, 0.0, 0.01, 66.76, 68.6, 218, 2.6, 38.66720, 35.30440, 10.2937, 35.3044, 38.6672, 77.50, 9.3500, 1487.85, 222.00, 238.7, 5.95, 7.9, 52
2008/03/31, 01:13:14, 2865.00, 0.00, 6.02, 6.40, 997.8, 59.3947630, -21.0066850, , 49.20, 12.87, 44.20, 998.97, 0.30, 0.0, 0.01, 66.94, 68.4, 212, 2.2, 38.67010, 35.30640, 10.2946, 35.3064, 38.6701, 76.80, 9.3818, 1487.96, 224.70, 236.6, 6.94, 8.6, 52
2008/03/31, 01:14:14, 2865.00, 0.00, 5.88, 6.40, 998.1, 59.3970280, -21.0020470, , 47.70, 11.57, 45.80, 998.79, 0.20, 0.0, 0.01, 64.91, 66.7, 226, 2.1, 38.67260, 35.30680, 10.2969, 35.3068, 38.6726, 76.30, 9.4085, 1488.06, 220.00, 238.8, 6.58, 7.4, 52
2008/03/31, 01:15:14, 2864.00, 0.00, 5.93, 6.30, 997.9, 59.3992880, -20.9973150, , 46.40, 12.47, 44.20, 998.86, 0.00, 0.0, 0.01, 64.58, 66.4, 264, 2.1, 38.67890, 35.30630, 10.3040, 35.3063, 38.6789, 76.50, 9.4299, 1488.14, 217.40, 244.5, 7.18, 7.4, 52
2008/03/31, 01:16:14, 2864.00, 0.00, 5.96, 6.30, 998.3, 59.4015330, -20.9926930, , 45.70, 11.93, 44.90, 998.93, -0.10, 0.0, 0.01, 64.42, 66.1, 232, 2.7, 38.68050, 35.30730, 10.3046, 35.3073, 38.6805, 77.50, 9.4426, 1488.19, 217.60, 238.7, 6.43, 8.1, 52
2008/03/31, 01:17:14, 2862.00, 0.00, 5.99, 6.30, 998.2, 59.4036580, -20.9880700, , 49.40, 9.67, 44.80, 998.65, 0.00, 0.0, 0.01, 63.90, 66.2, 234, 2.8, 38.68230, 35.30570, 10.3082, 35.3057, 38.6823, 76.80, 9.4496, 1488.21, 223.50, 244.3, 5.59, 7.4, 52
2008/03/31, 01:18:13, 2862.00, 0.00, 5.96, 6.30, 998.3, 59.4058020, -20.9835380, , 48.10, 11.03, 45.00, 998.47, 0.10, 0.0, 0.01, 63.90, 65.7, 225, 2.2, 38.71840, 35.31250, 10.3389, 35.3125, 38.7184, 81.20, 9.4570, 1488.24, 226.80, 240.3, 5.85, 7.7, 52
2008/03/31, 01:19:14, 2862.00, 0.00, 6.02, 6.30, 997.9, 59.4079630, -20.9789650, , 41.20, 11.78, 44.20, 998.66, 0.20, 0.0, 0.01, 66.26, 67.5, 201, 1.8, 38.79230, 35.31970, 10.4087, 35.3197, 38.7923, 86.60, 9.4604, 1488.27, 219.30, 232.2, 6.28, 8.0, 52
2008/03/31, 01:20:14, 2862.00, 0.00, 5.93, 6.30, 998.2, 59.4101330, -20.9744020, , 50.70, 10.39, 45.00, 998.35, 0.20, 0.0, 0.01, 65.10, 66.5, 213, 2.2, 38.83060, 35.31970, 10.4487, 35.3197, 38.8306, 86.90, 9.4584, 1488.26, 213.00, 238.4, 5.36, 6.8, 52
2008/03/31, 01:21:14, 2860.00, 0.00, 5.96, 6.30, 998.0, 59.4122280, -20.9699850, , 48.10, 11.06, 45.80, 998.55, 0.20, 0.0, 0.01, 64.58, 66.9, 234, 2.5, 38.84380, 35.32120, 10.4609, 35.3212, 38.8438, 86.40, 9.4569, 1488.26, 208.70, 235.1, 5.99, 7.5, 52
2008/03/31, 01:22:14, 2859.00, 0.00, 5.93, 6.30, 998.2, 59.4142900, -20.9654320, , 52.40, 11.78, 45.30, 998.53, 0.30, 0.0, 0.01, 64.71, 66.4, 213, 2.6, 38.86020, 35.32050, 10.4788, 35.3205, 38.8602, 86.00, 9.4573, 1488.26, 213.20, 231.4, 6.50, 8.4, 52
2008/03/31, 01:23:14, 2859.00, 0.00, 5.91, 6.30, 997.8, 59.4164100, -20.9608870, , 47.70, 9.49, 44.00, 998.67, 0.40, 0.0, 0.01, 64.13, 66.4, 232, 2.4, 38.85170, 35.31780, 10.4727, 35.3178, 38.8517, 87.20, 9.4605, 1488.26, 222.10, 241.0, 5.86, 7.2, 52
2008/03/31, 01:24:14, 2860.00, 0.00, 5.99, 6.30, 998.2, 59.4185770, -20.9564870, , 39.80, 11.81, 45.80, 998.78, -0.10, 0.0, 0.01, 64.50, 66.5, 255, 2.3, 38.84950, 35.31770, 10.4705, 35.3177, 38.8495, 89.70, 9.4669, 1488.29, 228.60, 245.9, 6.37, 7.5, 52
2008/03/31, 01:25:14, 2859.00, 0.00, 6.02, 6.30, 998.1, 59.4207200, -20.9520100, , 41.10, 12.05, 44.80, 998.69, -0.20, 0.0, 0.01, 65.62, 68.7, 280, 2.0, 38.85330, 35.31550, 10.4767, 35.3155, 38.8533, 90.30, 9.4762, 1488.32, 222.00, 242.1, 6.15, 6.5, 52
2008/03/31, 01:26:14, 2859.00, 0.00, 5.96, 6.40, 997.4, 59.4229750, -20.9475830, , 46.80, 10.15, 44.10, 999.16, -0.20, 0.0, 0.01, 66.11, 67.7, 252, 1.6, 38.83240, 35.30730, 10.4633, 35.3073, 38.8324, 89.40, 9.4855, 1488.35, 218.30, 233.9, 6.09, 7.0, 52
2008/03/31, 01:27:13, 2858.00, 0.00, 5.93, 6.40, 997.4, 59.4252500, -20.9431650, , 46.10, 12.60, 43.80, 998.57, -0.10, 0.0, 0.01, 65.20, 66.9, 279, 2.8, 38.81590, 35.30420, 10.4492, 35.3042, 38.8159, 87.90, 9.4942, 1488.37, 228.10, 250.2, 6.67, 7.1, 52
2008/03/31, 01:28:14, 2857.00, 0.00, 5.93, 6.30, 997.6, 59.4274850, -20.9389030, , 44.60, 11.98, 45.50, 997.66, -0.30, 0.0, 0.01, 64.21, 66.1, 271, 2.8, 38.81990, 35.30200, 10.4557, 35.3020, 38.8199, 86.90, 9.4999, 1488.39, 224.00, 248.6, 5.73, 6.7, 52
2008/03/31, 01:29:14, 2858.00, 0.00, 5.96, 6.30, 997.8, 59.4297070, -20.9345420, , 48.30, 10.78, 45.90, 998.74, -0.30, 0.0, 0.01, 64.03, 66.8, 260, 2.0, 38.82480, 35.30630, 10.4565, 35.3063, 38.8248, 86.60, 9.5016, 1488.40, 222.00, 242.3, 5.25, 6.1, 52
2008/03/31, 01:30:14, 2856.00, 0.00, 6.02, 6.30, 997.8, 59.4319780, -20.9301600, , 50.80, 11.30, 47.50, 998.64, -0.20, 0.0, 0.01, 65.23, 67.6, 275, 2.0, 38.83340, 35.30990, 10.4616, 35.3099, 38.8334, 86.60, 9.5020, 1488.40, 211.40, 238.9, 5.53, 6.0, 52
2008/03/31, 01:31:14, 2857.00, 0.00, 5.96, 6.40, 997.7, 59.4342070, -20.9256580, , 52.10, 9.93, 45.30, 998.27, 0.10, 0.0, 0.01, 65.59, 67.8, 234, 1.8, 38.85770, 35.31820, 10.4785, 35.3182, 38.8577, 86.40, 9.5017, 1488.41, 212.50, 235.6, 5.59, 6.7, 52
2008/03/31, 01:32:14, 2856.00, 0.00, 5.99, 6.40, 997.9, 59.4364950, -20.9212550, , 48.30, 11.00, 47.40, 998.78, 0.30, 0.0, 0.01, 65.62, 67.8, 253, 1.7, 38.86900, 35.32140, 10.4870, 35.3214, 38.8690, 86.90, 9.5016, 1488.42, 214.40, 238.9, 6.05, 6.8, 52